#timestamp,LO_Frequency,Hit,StdDev 
1506654015.2,286046993.0,N
1506654035.0,286046994.0,N
1506654035.9,286046994.0,N
1506654055.8,286046994.0,N
1506654075.6,286046990.3,N
1506654095.4,286046992.8,N
1506654115.3,286046993.7,N
1506654135.1,286046999.1,N
1506654155.8,286046998.8,N
1506654175.7,286046999.6,N
1506654195.5,286046997.4,N
1506654215.3,286046995.4,N
1506654235.2,286046995.7,N
1506654255.9,286046998.9,N
1506654275.7,286047002.0,N
1506654295.6,286047003.1,N
1506654315.4,286047009.4,N
1506654335.2,286047013.8,N
1506654355.1,286047016.6,Y
1506654356.0,286047016.6,P
1506654375.8,286047017.3,N
1506654395.6,286047024.5,N
1506654415.4,286047022.1,N
1506654435.3,286047023.4,N
1506654455.1,286047023.3,N
1506654475.9,286047025.9,Y
1506654495.7,286047010.7,P
1506654515.5,286047012.5,P
1506654535.3,286047013.8,P
1506654555.2,286047017.2,Y
1506654575.0,286047004.9,P
1506654575.9,286047004.9,N
1506654595.8,286047005.0,N
1506654615.6,286047010.8,N
1506654635.4,286047008.0,N
1506654655.3,286047010.4,Y
1506654675.1,286047001.4,P
1506654676.0,286047001.4,N
1506654695.8,286047004.2,N
1506654715.7,286047009.0,Y
1506654735.5,286047001.9,P
1506654755.3,286046997.2,P
1506654775.2,286046995.8,N
1506654795.9,286046993.8,N
1506654815.7,286046997.4,N
1506654835.5,286047000.3,N
1506654855.4,286047002.5,N
1506654875.2,286047002.5,N
1506654895.0,286047000.2,N
1506654895.9,286047000.2,N
1506654915.8,286047000.4,N
1506654935.6,286047006.6,N
1506654955.4,286047005.9,N
1506654975.3,286047004.3,N
1506654995.1,286047005.6,N
1506654996.0,286047005.6,N
1506655015.8,286047002.0,N
1506655035.7,286047000.6,N
1506655055.5,286047000.9,N
1506655075.3,286046996.7,N
1506655095.2,286046993.0,N
1506655115.9,286046991.3,N
1506655135.7,286046989.2,N
1506655155.5,286046987.0,N
1506655175.4,286046986.8,N
1506655195.2,286046982.8,Y
1506655215.0,286046985.5,P
1506655216.0,286046985.5,N
1506655235.8,286046984.7,N
1506655255.6,286046985.0,N
1506655275.5,286046979.2,Y
1506655295.3,286046989.8,P
1506655315.1,286046986.2,P
1506655335.8,286046986.9,P
1506655355.7,286046990.3,Y
1506655375.5,286047004.4,P
1506655395.3,286047002.5,N
1506655415.2,286046999.5,N
1506655435.0,286046997.3,N
1506655435.9,286046997.3,N
1506655455.7,286046997.5,N
1506655475.6,286046998.6,N
1506655495.4,286046996.7,N
1506655515.2,286046997.9,N
1506655535.1,286046996.0,N
1506655536.0,286046996.0,N
1506655555.8,286046991.7,N
1506655575.6,286046994.7,N
1506655595.5,286046993.7,N
1506655615.3,286046997.4,N
1506655635.1,286046997.9,N
1506655655.9,286046999.9,N
1506655675.7,286046999.1,N
1506655695.5,286046997.0,N
1506655715.3,286046998.0,N
1506655735.2,286046994.0,N
1506655755.0,286046994.6,N
1506655755.9,286046994.6,N
1506655775.7,286046997.0,N
1506655795.6,286046995.3,N
1506655815.4,286046993.9,N
1506655835.2,286046994.7,N
1506655855.1,286046995.8,N
1506655856.0,286046995.8,N
1506655875.8,286046993.5,N
1506655895.6,286046994.7,N
1506655915.5,286046990.8,Y
1506655935.3,286046992.5,P
1506655955.1,286046991.2,P
1506655975.9,286046990.6,P
1506655995.7,286046994.3,N
1506656015.5,286046996.4,N
1506656035.4,286046995.7,N
1506656055.2,286046999.3,N
1506656075.0,286047000.3,N
1506656075.9,286047000.3,N
1506656095.8,286046998.6,N
1506656115.6,286046998.0,N
1506656135.4,286046998.0,N
1506656155.2,286046996.9,N
1506656175.1,286047000.6,N
1506656176.0,286047000.6,N
1506656195.8,286047000.0,N
1506656215.6,286046998.8,N
1506656235.5,286046996.0,N
1506656255.3,286046994.6,N
1506656275.1,286046997.1,N
1506656295.9,286046997.1,N
1506656315.7,286046996.3,N
1506656335.5,286046990.7,Y
1506656355.4,286046996.2,P
1506656375.2,286047002.7,P
1506656395.0,286047000.7,N
1506656395.9,286047000.7,N
1506656415.8,286046997.5,N
1506656435.6,286046998.9,N
1506656455.4,286047003.7,N
1506656475.3,286047010.4,Y
1506656495.1,286047010.9,P
1506656496.0,286047010.9,N
1506656515.8,286047017.3,P
1506656535.7,286047021.4,Y
1506656555.5,286047013.0,P
1506656575.3,286047017.9,P
1506656595.2,286047020.2,P
1506656615.9,286047021.4,Y
1506656635.7,286047006.0,P
1506656655.6,286047004.1,N
1506656675.4,286047003.5,N
1506656695.2,286047005.8,N
1506656715.1,286047003.7,N
1506656716.0,286047003.7,N
1506656735.8,286047008.8,N
1506656755.6,286047006.4,N
1506656775.5,286047010.7,Y
1506656795.3,286047001.6,P
1506656815.1,286047003.9,N
1506656835.9,286047003.5,N
1506656855.7,286047001.7,N
1506656875.5,286047001.6,N
1506656895.4,286047005.8,Y
1506656915.2,286047003.0,P
1506656935.0,286047004.4,P
1506656935.9,286047004.4,P
1506656955.8,286047002.2,Y
1506656975.6,286047000.4,P
1506656995.4,286046999.0,N
1506657015.3,286047001.2,N
1506657035.1,286047000.7,N
1506657036.0,286047000.7,N
1506657055.8,286046997.3,N
1506657075.7,286047000.3,N
1506657095.5,286046999.8,N
1506657115.3,286047003.5,N
1506657135.1,286047001.3,N
1506657155.9,286047002.2,N
1506657175.7,286047004.7,N
1506657195.5,286047003.0,N
1506657215.4,286046998.9,N
1506657235.2,286046992.1,Y
1506657255.0,286046989.8,P
1506657255.9,286046989.8,N
1506657275.8,286046987.5,N
1506657295.6,286046984.0,Y
1506657315.4,286046988.8,P
1506657335.3,286046988.9,P
1506657355.1,286046989.0,P
1506657375.8,286046988.4,Y
1506657395.7,286046997.1,P
1506657415.5,286046996.4,N
1506657435.3,286046993.8,N
1506657455.2,286046993.9,N
1506657475.9,286046997.7,N
1506657495.7,286046995.7,N
1506657515.6,286046997.5,N
1506657535.4,286046994.3,N
1506657555.2,286046991.1,Y
1506657575.1,286046994.0,P
1506657576.0,286046994.0,P
1506657595.8,286046993.2,P
